sat.trackr.live / text

‹ back to catalog

WILDFIRE 3

NORAD 57758 · 2023-133C

PAYLOAD ACTIVE UNKNOWN

§ Identity

Operator
Country
US
Launch date
2023-09-02
Launch site
AFWTR
Launch vehicle
Mass (kg)
RCS (m²)

External: N2YO · Heavens-Above · Gunter

§ Orbital elements

Epoch: 2026-05-25T03:30:07.115616Z

Period
103.88 min
Inclination
80.9984°
Eccentricity
0.0009514
Mean motion
13.86268490 rev/d
Perigee alt
934.8 km
Apogee alt
948.7 km
Semi-major
7,319.9 km
B*
5.7765e-5
RAAN
28.1408°
Arg perigee
58.7453°
Mean anomaly
301.4634°
Rev number
13,790

§ Raw data

WILDFIRE 31 57758U 23133C   26145.14591569  .00000078  00000+0  57765-4 0  99902 57758  80.9984  28.1408 0009514  58.7453 301.4634 13.86268490137904

JSON: /api/v1/satellites/57758 · /tle

For live sub-satellite position, see the globe view (requires WebGL).

§ Visibility from observer

Set your observer location to see the next 7 days of passes ≥ 10°. The values pass through the URL so the page stays shareable.

No JS? Fill the form by hand. The geolocation button needs JavaScript.

§ Radio — SatNOGS DB

ModeDescriptionDownlinkUplink
BPSK S-band telemetry 2.278 GHz

1 transmitter · refreshed weekly from db.satnogs.org